[[{"header":{"parameterUnit":"m.s-1","parameterCategory":2,"la1":30.2991,"la2":30.254,"lo1":-89.0895,"lo2":-89.0444,"dy":0.0017,"dx":0.0017,"nx":28,"ny":28,"refTime":"2023-10-26T09:00:00:Z","depth":"0","parameterNumber":2,"parameterNumberName":"U-component_of_CURRENTS"},"data":[0,0,0,0,0,0,0,0,0,0,0,0,0,0,0,0,0,0,0,0,0,0,0,0,0,0,0,0,0,0,0,0,0,0,0,0,0,0,0,0,0,0,0,0,0,0,0,0,0,0,0,0,0,0,0,0,0,0,0.2343,0.2343,0,0.2358,0.2358,0.2358,0.2372,0.2372,0.2373,0.2373,0.2375,0.2375,0.2375,0,0,0,0,0,0,0,0,0,0,0,0,0,0.2344,0.2344,0.2343,0.2343,0.2343,0.2358,0.2358,0.2358,0.2372,0.2372,0.2373,0.2373,0.2376,0.2375,0.2375,0,0,0,0,0,0,0,0,0,0,0,0,0,0.2349,0.2344,0.2342,0.2353,0.2354,0.2358,0.2358,0.2358,0.2372,0.2372,0.2373,0.2373,0.2376,0.2375,0.2375,0.2364,0,0,0.2374,0.2374,0,0,0,0,0,0,0,0,0.2348,0.2348,0.2351,0.2352,0.2354,0.2365,0.236,0.236,0.2372,0.2364,0.2373,0.2373,0.2371,0.2371,0.2371,0.2364,0.2364,0.2374,0.2374,0.2374,0.2374,0,0,0,0,0,0,0,0.2348,0.2348,0.2347,0.2351,0.2353,0.2364,0.2365,0.236,0.2363,0.2364,0.2366,0.237,0.2372,0.2372,0.2372,0.2365,0.2374,0.2374,0.2374,0.2373,0.239,0.239,0,0,0,0,0,0,0.2347,0.2347,0.2347,0.2348,0.2354,0.2363,0.2364,0.236,0.2364,0.2365,0.2369,0.237,0.2372,0.2372,0.2372,0.2393,0.2374,0.2373,0.2373,0.2389,0.239,0.2391,0,0,0,0,0,0,0.2347,0.2347,0.2346,0.235,0.2351,0.2363,0.2358,0.236,0.2362,0.2368,0.2369,0.237,0.2372,0.2372,0.2381,0.2392,0.2373,0.2373,0.2388,0.2389,0.239,0.2414,0,0,0,0,0,0,0.2347,0.2346,0.2343,0.2349,0.2351,0.2354,0.2358,0.236,0.2364,0.2366,0.2369,0.2369,0.2373,0.2381,0.2381,0.2391,0.2373,0.2388,0.2389,0.239,0.2413,0.2416,0.2419,0,0,0,0,0,0.2347,0.234,0.2342,0.2343,0.2345,0.2354,0.2356,0.2365,0.2364,0.2367,0.2375,0.2369,0.2388,0.2381,0.238,0.2391,0.2387,0.2389,0.239,0.2411,0.2415,0.2419,0,0,0,0,0,0,0.2334,0.2341,0.2344,0.2338,0.2349,0.2357,0.2361,0.2363,0.237,0.2372,0.2374,0.2375,0.2391,0.2385,0.2377,0.2401,0.2388,0.2389,0.2405,0.2408,0.2411,0.2415,0.2372,0,0,0,0,0,0.233,0.2329,0.2339,0.2335,0.2341,0.2349,0.2353,0.2361,0.2368,0.2372,0.2374,0.2381,0.2394,0.2396,0.2405,0.2409,0.2417,0.2417,0.242,0.2422,0.2426,0.2448,0.2454,0.2395,0.2395,0.2395,0,0,0.2322,0.2328,0.2326,0.2333,0.2341,0.2353,0.2353,0.2361,0.2374,0.237,0.2383,0.2391,0.2399,0.2416,0.2421,0.2411,0.2445,0.2424,0.2426,0.2428,0.245,0.2456,0.2461,0.2396,0.2396,0.2396,0,0,0.2314,0.2314,0.2315,0.2326,0.2343,0.2353,0.2356,0.2367,0.2376,0.2387,0.2397,0.2412,0.2417,0.2435,0.2442,0.2463,0.2463,0.2462,0.2476,0.2499,0.2504,0.2508,0.2533,0.254,0.246,0.246,0.246,0,0.2306,0.231,0.2317,0.2328,0.2341,0.2353,0.2365,0.2376,0.239,0.2403,0.2396,0.2426,0.243,0.2463,0.2474,0.247,0.2482,0.2462,0.2503,0.2507,0.2512,0.2536,0.2543,0.2461,0.2461,0.2461,0.2461,0,0.2304,0.2311,0.2315,0.2335,0.2348,0.2361,0.2383,0.2398,0.2407,0.242,0.245,0.2458,0.248,0.2482,0.2483,0.2518,0.2518,0.2507,0.2494,0.2519,0.2543,0.255,0.2463,0.2463,0.2462,0.2462,0,0,0.2271,0.2308,0.2307,0.2323,0.2356,0.2364,0.2396,0.2428,0.2451,0.2462,0.2491,0.2512,0.2518,0.2528,0.2533,0.2546,0.2587,0.2537,0.2538,0.2562,0.2641,0.2679,0.2689,0.2583,0.2584,0.2585,0.2649,0,0.2269,0.2291,0.2312,0.2335,0.235,0.2383,0.2414,0.2445,0.247,0.2501,0.252,0.2548,0.2536,0.255,0.2564,0.2586,0.2604,0.2571,0.2613,0.2614,0.2644,0.2699,0.2615,0.2668,0.2655,0.2657,0.2657,0,0.2255,0.2278,0.2301,0.2347,0.2357,0.2374,0.2428,0.2458,0.2513,0.2536,0.2568,0.2584,0.2622,0.2598,0.2649,0.2628,0.2639,0.2645,0.2648,0.2679,0.2665,0.2639,0.2681,0.2612,0.2668,0.2667,0.2666,0,0.2224,0.2263,0.2284,0.2298,0.2354,0.2374,0.2406,0.2464,0.2497,0.2559,0.2592,0.2631,0.2662,0.2678,0.2711,0.2679,0.2765,0.2722,0.2766,0.2768,0.2704,0.27,0.2683,0.2755,0.2755,0.2754,0.2754,0,0.2208,0.2218,0.2269,0.2279,0.2306,0.2355,0.2395,0.2437,0.2505,0.2549,0.2605,0.2649,0.2682,0.2737,0.274,0.2799,0.2797,0.2788,0.2795,0.2712,0.2708,0.2651,0.2611,0.2757,0.2756,0.2756,0.2755,0,0.2158,0.2195,0.2218,0.2276,0.2289,0.2306,0.2373,0.2408,0.2488,0.2549,0.2572,0.2672,0.2762,0.2812,0.2859,0.2853,0.2818,0.2907,0.2818,0.2815,0.2773,0.2738,0.2637,0.2552,0.2951,0.2952,0.2953,0,0.2129,0.2141,0.2195,0.2208,0.2229,0.2265,0.2297,0.2379,0.2425,0.256,0.259,0.2711,0.2806,0.2929,0.2953,0.3006,0.2878,0.2931,0.2852,0.2784,0.2749,0.2613,0.2537,0.2771,0.2771,0.2771,0.2771,0,0.2077,0.2102,0.2123,0.2158,0.2182,0.2211,0.2266,0.2298,0.2409,0.2491,0.261,0.2702,0.2866,0.291,0.3008,0.3007,0.2793,0.2928,0.2864,0.2629,0.2469,0.2386,0.2721,0.2768,0.2768,0.2768,0.2768,0.2769,0.2029,0.2031,0.2071,0.2093,0.2124,0.215,0.2153,0.2236,0.231,0.2405,0.2551,0.2665,0.28,0.2949,0.2939,0.2869,0.2818,0.2762,0.2733,0.2608,0.2496,0.285,0.2905,0.2906,0.2907,0.2907,0.2908,0,0.1961,0.198,0.2005,0.2028,0.2035,0.2078,0.2125,0.2125,0.2186,0.2316,0.2427,0.2593,0.2673,0.274,0.2776,0.2686,0.2509,0.2589,0.2348,0.2287,0.2616,0.2581,0.2559,0.2559,0.2559,0.2559,0.256,0.256,0.1927,0.1922,0.194,0.1928,0.1947,0.1925,0.1932,0.1954,0.2028,0.2121,0.2216,0.2347,0.2552,0.2651,0.2591,0.2514,0.2275,0.2189,0.2153,0.2375,0.2386,0.2397,0.2355,0.2286,0.2286,0.1712,0.1708,0.1705]},{"header":{"parameterUnit":"m.s-1","parameterCategory":2,"la1":30.2991,"la2":30.254,"lo1":-89.0895,"lo2":-89.0444,"dy":0.0017,"dx":0.0017,"nx":28,"ny":28,"refTime":"2023-10-26T09:00:00:Z","depth":"0","parameterNumber":3,"parameterNumberName":"V-component_of_CURRENTS"},"data":[0,0,0,0,0,0,0,0,0,0,0,0,0,0,0,0,0,0,0,0,0,0,0,0,0,0,0,0,0,0,0,0,0,0,0,0,0,0,0,0,0,0,0,0,0,0,0,0,0,0,0,0,0,0,0,0,0,0,-0.0196,-0.0197,0,-0.0274,-0.0275,-0.0276,-0.0332,-0.0332,-0.0332,-0.0333,-0.0392,-0.0394,-0.0395,0,0,0,0,0,0,0,0,0,0,0,0,0,-0.0141,-0.0141,-0.0196,-0.0197,-0.0198,-0.0274,-0.0275,-0.0276,-0.0332,-0.0332,-0.0332,-0.0333,-0.0392,-0.0393,-0.0395,0,0,0,0,0,0,0,0,0,0,0,0,0,-0.0187,-0.0142,-0.0196,-0.0234,-0.0238,-0.0273,-0.0275,-0.0276,-0.0332,-0.0332,-0.0333,-0.0333,-0.0391,-0.0393,-0.0395,-0.0397,0,0,-0.0401,-0.0402,0,0,0,0,0,0,0,0,-0.0185,-0.0189,-0.0228,-0.0231,-0.0236,-0.0293,-0.0277,-0.0315,-0.0331,-0.0297,-0.0333,-0.0333,-0.0356,-0.0361,-0.0377,-0.0399,-0.0402,-0.0401,-0.0402,-0.0403,-0.0404,0,0,0,0,0,0,0,-0.0181,-0.0187,-0.0228,-0.0228,-0.0234,-0.0262,-0.0269,-0.0285,-0.0324,-0.03,-0.0304,-0.0311,-0.0359,-0.0375,-0.0378,-0.0403,-0.0401,-0.0403,-0.0404,-0.0405,-0.0448,-0.0448,0,0,0,0,0,0,-0.0166,-0.0183,-0.0226,-0.0231,-0.021,-0.0262,-0.027,-0.0275,-0.0324,-0.0332,-0.031,-0.0313,-0.0371,-0.0376,-0.038,-0.0399,-0.0403,-0.0405,-0.0406,-0.0448,-0.0448,-0.0448,0,0,0,0,0,0,-0.0165,-0.0169,-0.0223,-0.0208,-0.0217,-0.0262,-0.0268,-0.0276,-0.0293,-0.0331,-0.0339,-0.0317,-0.0372,-0.0378,-0.0404,-0.0401,-0.0406,-0.0408,-0.0448,-0.0448,-0.0448,-0.0426,0,0,0,0,0,0,-0.0163,-0.0168,-0.0168,-0.0207,-0.0217,-0.0242,-0.0267,-0.0277,-0.0295,-0.03,-0.034,-0.0346,-0.0373,-0.0401,-0.0406,-0.0404,-0.0409,-0.0448,-0.0448,-0.0448,-0.0427,-0.0426,-0.0424,0,0,0,0,0,-0.016,-0.016,-0.0167,-0.0173,-0.0214,-0.0242,-0.025,-0.0286,-0.0295,-0.0302,-0.0335,-0.0345,-0.0404,-0.0403,-0.0409,-0.0407,-0.0448,-0.0448,-0.0448,-0.0428,-0.0426,-0.0424,0,0,0,0,0,0,-0.0137,-0.0167,-0.0175,-0.0184,-0.0208,-0.0251,-0.026,-0.0279,-0.0311,-0.0313,-0.0349,-0.0358,-0.0381,-0.0394,-0.0392,-0.0419,-0.0425,-0.0426,-0.0408,-0.0407,-0.0406,-0.0401,-0.0411,0,0,0,0,0,-0.0129,-0.0137,-0.0167,-0.0173,-0.0181,-0.0217,-0.0232,-0.0253,-0.0285,-0.0299,-0.0328,-0.0357,-0.0384,-0.0396,-0.0422,-0.0434,-0.0449,-0.0435,-0.0433,-0.0432,-0.0432,-0.0461,-0.0463,-0.0448,-0.0448,-0.0448,0,0,-0.0122,-0.0138,-0.0143,-0.0169,-0.0189,-0.0199,-0.0228,-0.0245,-0.0258,-0.0299,-0.0323,-0.0353,-0.0387,-0.041,-0.042,-0.0421,-0.0442,-0.0432,-0.0431,-0.0431,-0.0461,-0.0463,-0.0464,-0.0448,-0.0448,-0.0448,0,0,-0.0109,-0.0122,-0.0122,-0.0138,-0.0162,-0.0185,-0.0185,-0.0222,-0.0243,-0.0268,-0.0303,-0.0335,-0.0367,-0.0401,-0.0419,-0.0422,-0.0436,-0.0421,-0.0409,-0.0438,-0.0439,-0.0441,-0.0452,-0.0455,-0.0418,-0.0418,-0.0418,0,-0.0097,-0.0101,-0.0127,-0.013,-0.0138,-0.0173,-0.0172,-0.0199,-0.0242,-0.0257,-0.0269,-0.0335,-0.0365,-0.04,-0.0408,-0.0419,-0.0431,-0.0413,-0.0436,-0.0438,-0.044,-0.0451,-0.0455,-0.0417,-0.0417,-0.0417,-0.0417,0,-0.0084,-0.0086,-0.0086,-0.01,-0.0113,-0.0118,-0.0151,-0.0169,-0.0192,-0.0222,-0.0261,-0.0311,-0.0348,-0.0363,-0.039,-0.0418,-0.042,-0.0433,-0.044,-0.044,-0.0452,-0.0456,-0.0415,-0.0416,-0.0416,-0.0416,0,0,-0.0054,-0.0073,-0.007,-0.0069,-0.0095,-0.0103,-0.012,-0.0148,-0.0154,-0.0205,-0.022,-0.0286,-0.0313,-0.0336,-0.0373,-0.0405,-0.0433,-0.0422,-0.0425,-0.0432,-0.0483,-0.0439,-0.0439,-0.045,-0.0451,-0.0452,-0.0481,0,-0.0032,-0.0025,-0.0044,-0.0037,-0.0032,-0.0066,-0.0075,-0.0105,-0.0137,-0.0162,-0.0224,-0.0251,-0.0302,-0.0313,-0.0359,-0.041,-0.0443,-0.0423,-0.0482,-0.0484,-0.0444,-0.0443,-0.0391,-0.0408,-0.0485,-0.0485,-0.0486,0,-0.0007,-0.0005,0.001,0.0003,0.0003,-0.0,-0.0015,-0.0028,-0.0075,-0.01,-0.0149,-0.0192,-0.0251,-0.0288,-0.0385,-0.0367,-0.0425,-0.047,-0.0472,-0.0442,-0.0448,-0.0423,-0.0413,-0.055,-0.0492,-0.0492,-0.0491,0,0.0036,0.0035,0.005,0.0047,0.0033,0.0034,0.0026,-0.0007,-0.0003,-0.0056,-0.0055,-0.0143,-0.0159,-0.0259,-0.0348,-0.0368,-0.0442,-0.048,-0.0499,-0.0496,-0.0468,-0.0461,-0.0597,-0.0554,-0.0554,-0.0554,-0.0554,0,0.0069,0.0083,0.0072,0.0082,0.0106,0.0081,0.0097,0.0075,0.0063,0.0087,-0.0014,-0.0004,-0.0152,-0.0209,-0.0321,-0.0402,-0.042,-0.0493,-0.0502,-0.0457,-0.0449,-0.058,-0.0662,-0.0555,-0.0554,-0.0554,-0.0554,0,0.0113,0.0105,0.0126,0.0123,0.0128,0.0147,0.0159,0.0175,0.0152,0.0185,0.018,0.0112,0.0051,-0.0088,-0.0223,-0.0332,-0.0495,-0.0464,-0.0389,-0.0388,-0.0538,-0.0619,-0.0744,-0.0794,-0.0499,-0.0498,-0.0498,0,0.0137,0.0154,0.0167,0.0188,0.0188,0.021,0.0234,0.0223,0.0252,0.0272,0.0304,0.0261,0.0265,0.0081,-0.0111,-0.0281,-0.0435,-0.0374,-0.0415,-0.0535,-0.0634,-0.0697,-0.0736,-0.0372,-0.037,-0.0369,-0.0368,0,0.0189,0.0192,0.0206,0.025,0.0279,0.0315,0.0351,0.0397,0.0413,0.0469,0.0546,0.0562,0.0402,0.0267,0.0023,-0.0112,-0.0449,-0.0349,-0.0507,-0.0568,-0.0615,-0.0669,-0.0359,-0.0355,-0.0356,-0.0357,-0.0358,-0.0358,0.0232,0.0252,0.0275,0.0316,0.0357,0.0427,0.0478,0.0552,0.0657,0.0781,0.0774,0.0863,0.0601,0.0296,0.0073,-0.0309,-0.0348,-0.044,-0.0534,-0.059,-0.0629,-0.0276,-0.026,-0.0261,-0.0261,-0.0262,-0.0262,0,0.0288,0.0304,0.0343,0.0394,0.0451,0.0462,0.0564,0.0644,0.081,0.0965,0.108,0.1069,0.0751,0.0371,-0.0151,-0.0448,-0.0577,-0.0627,-0.0735,-0.0772,-0.0482,-0.0466,-0.0454,-0.0454,-0.0454,-0.0454,-0.0453,-0.0453,0.0319,0.0362,0.0374,0.047,0.0513,0.0609,0.0681,0.0835,0.0973,0.1212,0.1336,0.1397,0.1122,0.0141,-0.0547,-0.0712,-0.0936,-0.0966,-0.1109,-0.0946,-0.0937,-0.0929,-0.0935,-0.1022,-0.1023,-0.1343,-0.1347,-0.135]}],[{"header":{"parameterUnit":"m.s-1","parameterCategory":2,"la1":30.2991,"la2":30.254,"lo1":-89.0895,"lo2":-89.0444,"dy":0.0017,"dx":0.0017,"nx":28,"ny":28,"refTime":"2023-10-26T09:00:00:Z","depth":"2","parameterNumber":2,"parameterNumberName":"U-component_of_CURRENTS"},"data":[0,0,0,0,0,0,0,0,0,0,0,0,0,0,0,0,0,0,0,0,0,0,0,0,0,0,0,0,0,0,0,0,0,0,0,0,0,0,0,0,0,0,0,0,0,0,0,0,0,0,0,0,0,0,0,0,0,0,0.2143,0.2143,0,0.2171,0.2171,0.2171,0.2202,0.2203,0.2203,0.2204,0.2247,0.2248,0.2248,0,0,0,0,0,0,0,0,0,0,0,0,0,0.213,0.213,0.2143,0.2143,0.2144,0.2171,0.2171,0.2171,0.2202,0.2203,0.2203,0.2204,0.2247,0.2247,0.2248,0,0,0,0,0,0,0,0,0,0,0,0,0,0.2144,0.213,0.2143,0.2163,0.2165,0.217,0.2171,0.2171,0.2202,0.2203,0.2204,0.2204,0.2246,0.2247,0.2248,0.2241,0,0,0.2252,0.2252,0,0,0,0,0,0,0,0,0.2143,0.2145,0.2159,0.2161,0.2164,0.2184,0.2182,0.2195,0.2202,0.2188,0.2204,0.2205,0.2227,0.223,0.2233,0.2243,0.2245,0.2252,0.2252,0.2253,0.2253,0,0,0,0,0,0,0,0.2142,0.2144,0.2154,0.216,0.2162,0.2174,0.2177,0.2185,0.2203,0.2189,0.2191,0.2194,0.2228,0.2232,0.2234,0.2245,0.2252,0.2253,0.2253,0.2254,0.2307,0.2308,0,0,0,0,0,0,0.2138,0.2143,0.2153,0.2155,0.2155,0.2174,0.2177,0.2176,0.2203,0.2207,0.2194,0.2196,0.2229,0.2233,0.2236,0.2303,0.2253,0.2254,0.2254,0.2306,0.2307,0.2308,0,0,0,0,0,0,0.2137,0.2138,0.2152,0.215,0.2152,0.2173,0.2173,0.2177,0.2196,0.2206,0.2211,0.2211,0.223,0.2234,0.2259,0.2302,0.2254,0.2255,0.2305,0.2307,0.2308,0.2389,0,0,0,0,0,0,0.2137,0.2138,0.2141,0.2149,0.2152,0.2168,0.2172,0.2177,0.2196,0.2199,0.2222,0.2226,0.2231,0.2258,0.226,0.2302,0.2256,0.2304,0.2306,0.2307,0.2385,0.2393,0.2399,0,0,0,0,0,0.2136,0.2142,0.214,0.2142,0.2154,0.2169,0.2172,0.2189,0.2196,0.2209,0.2225,0.2226,0.2269,0.2259,0.2262,0.2306,0.2304,0.2305,0.2307,0.2382,0.2391,0.2399,0,0,0,0,0,0,0.2132,0.2146,0.2144,0.2152,0.2163,0.2175,0.2189,0.2196,0.2217,0.2222,0.2234,0.2239,0.227,0.2271,0.2259,0.2322,0.2287,0.229,0.2344,0.2352,0.2359,0.2366,0.2257,0,0,0,0,0,0.2131,0.2146,0.2151,0.216,0.2165,0.2177,0.2187,0.2194,0.2211,0.2222,0.2242,0.2259,0.2276,0.2301,0.2303,0.2344,0.2341,0.2372,0.2379,0.2385,0.2391,0.241,0.242,0.2314,0.2314,0.2314,0,0,0.213,0.2142,0.2148,0.2161,0.2171,0.2187,0.2186,0.2202,0.2226,0.2222,0.2268,0.2274,0.2284,0.2326,0.2343,0.234,0.2417,0.2387,0.2393,0.2396,0.2413,0.2423,0.2433,0.2315,0.2315,0.2315,0,0,0.2139,0.2147,0.2161,0.2174,0.219,0.22,0.2208,0.2227,0.2249,0.2275,0.2285,0.232,0.2342,0.2378,0.2392,0.2437,0.2436,0.2441,0.2509,0.2528,0.2537,0.2545,0.2573,0.2583,0.2466,0.2466,0.2466,0,0.214,0.2154,0.2167,0.2185,0.22,0.221,0.2226,0.2249,0.2278,0.2313,0.2295,0.2356,0.2367,0.2441,0.2465,0.2457,0.2466,0.2482,0.2539,0.2546,0.2553,0.258,0.259,0.247,0.247,0.2469,0.2469,0,0.2151,0.2171,0.2184,0.2212,0.223,0.2247,0.2272,0.2309,0.2328,0.2358,0.2417,0.2428,0.2473,0.249,0.2495,0.257,0.256,0.253,0.2522,0.2569,0.2594,0.2603,0.2476,0.2475,0.2474,0.2473,0,0,0.2135,0.2183,0.219,0.2211,0.2246,0.2261,0.2315,0.2373,0.2426,0.2452,0.2517,0.2562,0.2577,0.2593,0.2611,0.2647,0.2714,0.2626,0.2625,0.2663,0.2769,0.2697,0.2699,0.2697,0.2699,0.27,0.2774,0,0.2142,0.2178,0.2205,0.2249,0.2266,0.231,0.2363,0.242,0.2467,0.2535,0.2573,0.2619,0.2615,0.2639,0.2679,0.2693,0.2738,0.2697,0.271,0.2711,0.2647,0.2707,0.2524,0.2568,0.2782,0.2784,0.2785,0,0.2137,0.2168,0.2201,0.2276,0.229,0.2323,0.2417,0.2468,0.2572,0.261,0.2676,0.2691,0.2769,0.2725,0.28,0.2776,0.2786,0.2791,0.2793,0.2701,0.2654,0.2551,0.2576,0.2799,0.2798,0.2797,0.2796,0,0.2104,0.2169,0.2199,0.2218,0.2296,0.234,0.2396,0.2497,0.2555,0.266,0.2701,0.2777,0.2805,0.283,0.286,0.283,0.2923,0.2871,0.2822,0.2818,0.265,0.2627,0.2917,0.2917,0.2917,0.2916,0.2916,0,0.2095,0.2123,0.2189,0.2206,0.2265,0.2327,0.2409,0.2487,0.2586,0.2659,0.2735,0.2785,0.2828,0.2884,0.2894,0.2901,0.2952,0.2847,0.2834,0.2674,0.2653,0.2832,0.2821,0.2919,0.2919,0.2918,0.2918,0,0.2048,0.2092,0.2133,0.2218,0.2246,0.229,0.2402,0.2463,0.2569,0.2659,0.2687,0.2801,0.2868,0.2921,0.2971,0.2933,0.2948,0.294,0.2759,0.2722,0.282,0.2813,0.2868,0.2866,0.2865,0.2864,0.2862,0,0.2024,0.2034,0.212,0.2157,0.2198,0.2272,0.2323,0.2436,0.2494,0.2662,0.269,0.2799,0.2839,0.291,0.2897,0.2908,0.2953,0.2714,0.2605,0.2835,0.2817,0.2812,0.2807,0.243,0.2425,0.2421,0.2418,0,0.1975,0.2006,0.2046,0.2111,0.2166,0.2232,0.2312,0.2338,0.2472,0.2538,0.2635,0.268,0.2773,0.2691,0.2716,0.2692,0.2689,0.2633,0.2936,0.2461,0.2424,0.2406,0.2414,0.2385,0.2388,0.2391,0.2393,0.2394,0.1935,0.1951,0.2003,0.2059,0.2127,0.2175,0.2197,0.2253,0.2301,0.2347,0.2465,0.2459,0.2506,0.2426,0.238,0.2363,0.2523,0.2393,0.2404,0.2418,0.2345,0.2306,0.2233,0.2235,0.2237,0.2239,0.224,0,0.186,0.19,0.1953,0.202,0.2051,0.2123,0.2175,0.2144,0.2133,0.2174,0.2193,0.202,0.1983,0.2052,0.1984,0.1979,0.1949,0.1886,0.1837,0.1874,0.1906,0.1804,0.155,0.1547,0.1544,0.1542,0,0,0.1829,0.1838,0.1862,0.1901,0.1965,0.1981,0.1988,0.1921,0.1916,0.1809,0.1774,0.1859,0.1988,0.1719,0.1713,0.1626,0.1725,0.1563,0.2131,0.2112,0.214,0.2228,0.2117,0,0,0,0,0]},{"header":{"parameterUnit":"m.s-1","parameterCategory":2,"la1":30.2991,"la2":30.254,"lo1":-89.0895,"lo2":-89.0444,"dy":0.0017,"dx":0.0017,"nx":28,"ny":28,"refTime":"2023-10-26T09:00:00:Z","depth":"2","parameterNumber":3,"parameterNumberName":"V-component_of_CURRENTS"},"data":[0,0,0,0,0,0,0,0,0,0,0,0,0,0,0,0,0,0,0,0,0,0,0,0,0,0,0,0,0,0,0,0,0,0,0,0,0,0,0,0,0,0,0,0,0,0,0,0,0,0,0,0,0,0,0,0,0,0,0.003,0.0029,0,-0.0038,-0.0039,-0.004,-0.0096,-0.0096,-0.0097,-0.0097,-0.0179,-0.0181,-0.0183,0,0,0,0,0,0,0,0,0,0,0,0,0,0.0064,0.0064,0.003,0.0029,0.0029,-0.0038,-0.0039,-0.0041,-0.0096,-0.0096,-0.0097,-0.0097,-0.0179,-0.0181,-0.0183,0,0,0,0,0,0,0,0,0,0,0,0,0,0.0025,0.0064,0.003,-0.0005,-0.0008,-0.0038,-0.004,-0.0041,-0.0096,-0.0096,-0.0097,-0.0097,-0.0178,-0.0181,-0.0183,-0.0192,0,0,-0.0192,-0.0193,0,0,0,0,0,0,0,0,0.0027,0.0023,0.0001,-0.0002,-0.0006,-0.0056,-0.0057,-0.0091,-0.0096,-0.0066,-0.0097,-0.0098,-0.0137,-0.0143,-0.0159,-0.0196,-0.02,-0.0192,-0.0194,-0.0195,-0.0196,0,0,0,0,0,0,0,0.003,0.0026,-0.0001,0.0,-0.0004,-0.0033,-0.0039,-0.0065,-0.0101,-0.0069,-0.0072,-0.0075,-0.014,-0.0156,-0.0162,-0.0201,-0.0192,-0.0195,-0.0197,-0.0198,-0.0244,-0.0243,0,0,0,0,0,0,0.0048,0.0029,0.0002,-0.0002,0.0013,-0.0033,-0.004,-0.0043,-0.0101,-0.0109,-0.0074,-0.0077,-0.0151,-0.0158,-0.0165,-0.0197,-0.0195,-0.0198,-0.02,-0.0244,-0.0243,-0.0243,0,0,0,0,0,0,0.0049,0.0046,0.0005,0.0014,0.0007,-0.0032,-0.0036,-0.0044,-0.0062,-0.0104,-0.0113,-0.0084,-0.0152,-0.0161,-0.0183,-0.02,-0.0199,-0.0202,-0.0245,-0.0244,-0.0243,-0.025,0,0,0,0,0,0,0.005,0.0047,0.0047,0.0015,0.0007,-0.0008,-0.0035,-0.0044,-0.0061,-0.0066,-0.0115,-0.0124,-0.0153,-0.0178,-0.0186,-0.0204,-0.0204,-0.0245,-0.0244,-0.0243,-0.025,-0.025,-0.0249,0,0,0,0,0,0.0051,0.0053,0.0047,0.0044,0.001,-0.0008,-0.0015,-0.0047,-0.0061,-0.0067,-0.0097,-0.0122,-0.0178,-0.018,-0.0189,-0.0209,-0.0246,-0.0245,-0.0244,-0.0251,-0.025,-0.0249,0,0,0,0,0,0,0.0066,0.0047,0.004,0.0035,0.002,-0.0016,-0.0025,-0.0043,-0.0073,-0.0077,-0.0119,-0.0129,-0.0147,-0.017,-0.0172,-0.0214,-0.0215,-0.0215,-0.0217,-0.0216,-0.0216,-0.0212,-0.0207,0,0,0,0,0,0.0073,0.0068,0.0049,0.0045,0.004,0.0009,-0.0003,-0.002,-0.0047,-0.0062,-0.0096,-0.0126,-0.0149,-0.0176,-0.0189,-0.0224,-0.0233,-0.0238,-0.0237,-0.0237,-0.0237,-0.025,-0.0251,-0.0239,-0.0239,-0.0239,0,0,0.0077,0.0067,0.0063,0.0048,0.0031,0.003,-0.0,-0.0013,-0.0015,-0.0064,-0.0084,-0.0115,-0.0149,-0.0179,-0.0192,-0.0207,-0.0245,-0.0235,-0.0235,-0.0235,-0.0249,-0.025,-0.0251,-0.0238,-0.0239,-0.0239,0,0,0.0087,0.0077,0.0078,0.007,0.0055,0.0042,0.0043,0.0012,-0.0003,-0.0017,-0.0053,-0.0093,-0.0128,-0.0171,-0.0192,-0.0192,-0.0223,-0.0202,-0.0223,-0.0236,-0.0237,-0.0239,-0.0258,-0.0261,-0.0223,-0.0223,-0.0223,0,0.0094,0.0096,0.0076,0.0079,0.0079,0.0053,0.0063,0.0045,0.0011,-0.0013,-0.0014,-0.0087,-0.012,-0.0175,-0.0188,-0.0194,-0.0209,-0.023,-0.0237,-0.0238,-0.024,-0.0259,-0.0262,-0.0223,-0.0223,-0.0223,-0.0223,0,0.0109,0.0111,0.0112,0.0111,0.0109,0.0112,0.0098,0.0083,0.0067,0.0031,-0.0011,-0.0057,-0.0114,-0.0133,-0.0169,-0.0213,-0.0222,-0.0219,-0.0244,-0.0242,-0.0262,-0.0265,-0.0224,-0.0224,-0.0224,-0.0223,0,0,0.0129,0.0124,0.0126,0.0131,0.013,0.0129,0.0131,0.0107,0.0092,0.0048,0.0018,-0.0048,-0.0103,-0.013,-0.0184,-0.0218,-0.0253,-0.024,-0.0241,-0.0267,-0.0294,-0.0254,-0.0254,-0.0259,-0.026,-0.026,-0.0307,0,0.0151,0.0168,0.016,0.0179,0.019,0.0171,0.0178,0.0148,0.0118,0.0078,0.0006,-0.0035,-0.0092,-0.0129,-0.0175,-0.0218,-0.0261,-0.0241,-0.0284,-0.0286,-0.0257,-0.0256,-0.0238,-0.0274,-0.031,-0.0311,-0.0311,0,0.0175,0.0185,0.0211,0.0217,0.022,0.0224,0.0217,0.0212,0.0146,0.0117,0.0038,-0.0014,-0.0098,-0.0118,-0.0212,-0.0201,-0.0257,-0.0288,-0.029,-0.0252,-0.0251,-0.0279,-0.0279,-0.0317,-0.0317,-0.0316,-0.0316,0,0.021,0.0219,0.0244,0.0247,0.0251,0.0251,0.0246,0.0207,0.0209,0.0123,0.0113,0.0004,-0.0023,-0.0107,-0.019,-0.0209,-0.0263,-0.0287,-0.0307,-0.0305,-0.0296,-0.0291,-0.0348,-0.0348,-0.0348,-0.0348,-0.0347,0,0.0241,0.0256,0.0255,0.0266,0.0291,0.0277,0.0284,0.0257,0.0235,0.0242,0.012,0.013,-0.0017,-0.007,-0.0168,-0.0235,-0.0247,-0.0307,-0.0311,-0.0296,-0.0291,-0.033,-0.0327,-0.0349,-0.0349,-0.0349,-0.0348,0,0.0273,0.0274,0.0296,0.0302,0.0307,0.0316,0.0328,0.0335,0.0301,0.0317,0.0298,0.0225,0.0169,0.0034,-0.0078,-0.0176,-0.0258,-0.0284,-0.0259,-0.0258,-0.0309,-0.0306,-0.0324,-0.0323,-0.0322,-0.0321,-0.032,0,0.029,0.0308,0.0326,0.034,0.034,0.0352,0.0377,0.0366,0.0397,0.0402,0.0436,0.0374,0.0372,0.0208,0.0018,-0.0146,-0.0188,-0.0244,-0.0273,-0.0302,-0.0305,-0.0303,-0.0302,-0.0276,-0.0275,-0.0275,-0.0274,0,0.0327,0.0331,0.0349,0.0386,0.041,0.0438,0.0476,0.053,0.0546,0.0595,0.0678,0.0679,0.0506,0.035,0.0097,-0.0015,-0.022,-0.023,-0.0266,-0.0268,-0.0257,-0.0259,-0.026,-0.0267,-0.0268,-0.0268,-0.0269,-0.0269,0.0353,0.0374,0.0402,0.0434,0.0466,0.0528,0.0577,0.0663,0.0767,0.0855,0.0863,0.087,0.0644,0.0347,0.0124,-0.0134,-0.0128,-0.0231,-0.0235,-0.0239,-0.0208,-0.0193,-0.0187,-0.0187,-0.0188,-0.0188,-0.0188,0,0.0387,0.0411,0.0447,0.0489,0.0537,0.0542,0.0653,0.0732,0.0899,0.0977,0.1052,0.0871,0.0683,0.0422,0.0046,-0.0167,-0.0212,-0.0227,-0.0255,-0.0259,-0.0263,-0.0236,-0.0222,-0.0223,-0.0224,-0.0224,0,0,0.0406,0.0449,0.0468,0.0548,0.0579,0.066,0.0734,0.0876,0.0972,0.108,0.109,0.1056,0.0764,0.0485,0.0188,-0.0025,-0.0093,-0.0059,-0.0006,-0.0007,-0.0009,-0.0234,-0.0191,0,0,0,0,0]}],[{"header":{"parameterUnit":"m.s-1","parameterCategory":2,"la1":30.2991,"la2":30.254,"lo1":-89.0895,"lo2":-89.0444,"dy":0.0017,"dx":0.0017,"nx":28,"ny":28,"refTime":"2023-10-26T09:00:00:Z","depth":"4","parameterNumber":2,"parameterNumberName":"U-component_of_CURRENTS"},"data":[0,0,0,0,0,0,0,0,0,0,0,0,0,0,0,0,0,0,0,0,0,0,0,0,0,0,0,0,0,0,0,0,0,0,0,0,0,0,0,0,0,0,0,0,0,0,0,0,0,0,0,0,0,0,0,0,0,0,0.1206,0.1207,0,0.1248,0.1248,0.1248,0.1293,0.1294,0.1295,0.1296,0.1345,0.1346,0.1346,0,0,0,0,0,0,0,0,0,0,0,0,0,0.1188,0.1188,0.1206,0.1207,0.1208,0.1248,0.1248,0.1248,0.1293,0.1294,0.1295,0.1296,0.1345,0.1346,0.1346,0,0,0,0,0,0,0,0,0,0,0,0,0,0.1207,0.1188,0.1206,0.1237,0.124,0.1248,0.1248,0.1249,0.1293,0.1294,0.1295,0.1297,0.1345,0.1346,0.1347,0.1326,0,0,0.1349,0.1349,0,0,0,0,0,0,0,0,0.1206,0.1207,0.1231,0.1234,0.1238,0.1269,0.126,0.1276,0.1293,0.127,0.1296,0.1297,0.1321,0.1324,0.1325,0.1328,0.133,0.1349,0.1349,0.135,0.135,0,0,0,0,0,0,0,0.1205,0.1206,0.122,0.1232,0.1236,0.1256,0.126,0.1263,0.1286,0.1272,0.1276,0.1284,0.1323,0.1325,0.1327,0.1331,0.1349,0.135,0.135,0.1351,0.1432,0.1433,0,0,0,0,0,0,0.1201,0.1204,0.1219,0.1222,0.1227,0.1255,0.1259,0.1256,0.1286,0.1293,0.1283,0.1286,0.1323,0.1326,0.1329,0.1391,0.135,0.1351,0.1351,0.143,0.1432,0.1434,0,0,0,0,0,0,0.12,0.1202,0.1218,0.1217,0.1221,0.1254,0.125,0.1256,0.1288,0.1295,0.1301,0.1313,0.1324,0.1328,0.1364,0.1391,0.1351,0.1352,0.1428,0.1431,0.1433,0.1462,0,0,0,0,0,0,0.1199,0.1201,0.1212,0.1216,0.1221,0.1238,0.1249,0.1256,0.129,0.1296,0.1322,0.1326,0.1325,0.1363,0.1365,0.1391,0.1352,0.1426,0.1429,0.1432,0.1459,0.1465,0.147,0,0,0,0,0,0.1198,0.1203,0.1212,0.1215,0.123,0.1238,0.1242,0.1269,0.1291,0.1304,0.1332,0.1327,0.1385,0.1365,0.1367,0.1393,0.1424,0.1428,0.1432,0.1456,0.1464,0.147,0,0,0,0,0,0,0.1204,0.1208,0.1219,0.1226,0.124,0.1247,0.1268,0.1284,0.1315,0.1332,0.134,0.1346,0.1388,0.139,0.1368,0.143,0.1407,0.1411,0.1425,0.1432,0.1438,0.1426,0.1353,0,0,0,0,0,0.1209,0.1214,0.1222,0.1231,0.124,0.126,0.1274,0.1291,0.1312,0.1329,0.1347,0.1375,0.1398,0.1416,0.1431,0.1459,0.1464,0.1482,0.1488,0.1493,0.1487,0.154,0.1549,0.1446,0.1446,0.1446,0,0,0.1216,0.1219,0.1225,0.1234,0.1249,0.126,0.1272,0.1299,0.1316,0.1327,0.1367,0.1392,0.1411,0.1446,0.1466,0.1455,0.1523,0.1497,0.1501,0.1492,0.1545,0.1555,0.1563,0.1449,0.1448,0.1448,0,0,0.122,0.1234,0.1238,0.1248,0.1273,0.1283,0.1297,0.1319,0.1341,0.1377,0.1395,0.1435,0.1471,0.1485,0.1498,0.1545,0.1551,0.1566,0.1586,0.1638,0.1646,0.1654,0.166,0.1668,0.1571,0.1571,0.1571,0,0.1235,0.1232,0.1244,0.125,0.1263,0.1295,0.1305,0.1327,0.1361,0.1381,0.1399,0.1471,0.1484,0.1526,0.1548,0.1555,0.158,0.1554,0.1644,0.1652,0.1659,0.1664,0.1672,0.1573,0.1573,0.1573,0.1573,0,0.1229,0.1242,0.1247,0.1262,0.1278,0.1295,0.132,0.1354,0.1393,0.1412,0.1473,0.1501,0.1548,0.1564,0.157,0.1632,0.1631,0.1642,0.1621,0.1671,0.1673,0.1681,0.1576,0.1575,0.1575,0.1574,0,0,0.1227,0.1241,0.1247,0.1257,0.1287,0.1298,0.1336,0.1369,0.1405,0.1454,0.15,0.1548,0.1582,0.16,0.1623,0.1663,0.1728,0.1683,0.1685,0.1679,0.1829,0.1732,0.1731,0.1775,0.1777,0.1778,0.1804,0,0.1225,0.123,0.1241,0.1264,0.1271,0.1311,0.1337,0.1377,0.1426,0.1479,0.1527,0.1577,0.1591,0.1631,0.1679,0.1724,0.1755,0.1718,0.179,0.1791,0.1691,0.1739,0.1785,0.181,0.1812,0.1813,0.1814,0,0.1213,0.1218,0.1231,0.126,0.1269,0.1295,0.1356,0.1388,0.1462,0.1502,0.1572,0.161,0.168,0.1688,0.1786,0.1775,0.1803,0.1825,0.1827,0.173,0.171,0.1756,0.1829,0.1828,0.1827,0.1826,0.1825,0,0.1189,0.1214,0.1225,0.1234,0.1271,0.1302,0.134,0.1404,0.1436,0.1531,0.1576,0.1656,0.1721,0.178,0.1837,0.1831,0.1934,0.1926,0.185,0.1842,0.1906,0.1898,0.1981,0.1981,0.1981,0.1981,0.1981,0,0.1167,0.1181,0.1224,0.1227,0.1254,0.1297,0.1345,0.1396,0.1472,0.1509,0.16,0.1644,0.1759,0.1827,0.1858,0.1882,0.1957,0.185,0.1851,0.1916,0.1909,0.1911,0.1902,0.1982,0.1982,0.1982,0.1982,0,0.1132,0.1157,0.1171,0.1218,0.1241,0.1268,0.1338,0.1369,0.146,0.1521,0.1553,0.1667,0.1756,0.1834,0.1927,0.1901,0.1927,0.1911,0.1956,0.1959,0.1786,0.1779,0.1814,0.1811,0.1809,0.1806,0.1805,0,0.1107,0.1112,0.1161,0.1171,0.1198,0.1246,0.1274,0.1356,0.1381,0.1511,0.1526,0.1649,0.1714,0.1763,0.1857,0.19,0.1889,0.1874,0.1834,0.1776,0.1774,0.177,0.1767,0.1801,0.18,0.1799,0.1799,0,0.1058,0.1088,0.1096,0.1121,0.1151,0.1159,0.1208,0.1215,0.1308,0.1415,0.1463,0.1521,0.162,0.1696,0.1753,0.1778,0.187,0.1846,0.1851,0.1814,0.176,0.1759,0.1759,0.179,0.1791,0.1792,0.1792,0,0.1028,0.1016,0.1038,0.1046,0.1072,0.1047,0.1086,0.1116,0.1153,0.13,0.1316,0.1463,0.1588,0.1633,0.168,0.1709,0.1685,0.1627,0.1643,0.1654,0.1596,0.1504,0.1456,0,0,0,0,0,0.0992,0.0961,0.0961,0.0938,0.0959,0.0976,0.1021,0.1063,0.1166,0.1167,0.1234,0.1315,0.1409,0.1488,0.149,0.1613,0.1686,0.1607,0.1625,0.1741,0.1751,0.1702,0,0,0,0,0,0,0.0955,0.0956,0.0927,0.0845,0.0826,0.0825,0.0852,0.0925,0.0923,0.1058,0.1119,0.1239,0.1352,0.1402,0.1467,0.1493,0.1477,0.1707,0.1703,0.1735,0.1744,0.1752,0.1706,0,0,0,0,0]},{"header":{"parameterUnit":"m.s-1","parameterCategory":2,"la1":30.2991,"la2":30.254,"lo1":-89.0895,"lo2":-89.0444,"dy":0.0017,"dx":0.0017,"nx":28,"ny":28,"refTime":"2023-10-26T09:00:00:Z","depth":"4","parameterNumber":3,"parameterNumberName":"V-component_of_CURRENTS"},"data":[0,0,0,0,0,0,0,0,0,0,0,0,0,0,0,0,0,0,0,0,0,0,0,0,0,0,0,0,0,0,0,0,0,0,0,0,0,0,0,0,0,0,0,0,0,0,0,0,0,0,0,0,0,0,0,0,0,0,0.0135,0.0135,0,0.0103,0.0103,0.0102,0.0076,0.0075,0.0075,0.0075,0.0025,0.0024,0.0023,0,0,0,0,0,0,0,0,0,0,0,0,0,0.0146,0.0146,0.0135,0.0135,0.0134,0.0103,0.0103,0.0102,0.0076,0.0075,0.0075,0.0075,0.0025,0.0024,0.0022,0,0,0,0,0,0,0,0,0,0,0,0,0,0.013,0.0146,0.0135,0.0118,0.0116,0.0103,0.0103,0.0102,0.0076,0.0075,0.0075,0.0075,0.0026,0.0024,0.0022,0.0018,0,0,0.0017,0.0016,0,0,0,0,0,0,0,0,0.0131,0.0129,0.0121,0.0119,0.0117,0.0094,0.0088,0.0074,0.0076,0.009,0.0075,0.0075,0.0047,0.0043,0.0037,0.0016,0.0014,0.0017,0.0016,0.0015,0.0015,0,0,0,0,0,0,0,0.0132,0.013,0.0122,0.012,0.0118,0.0103,0.01,0.0085,0.007,0.0089,0.0087,0.0085,0.0046,0.0039,0.0036,0.0013,0.0017,0.0015,0.0014,0.0014,-0.0007,-0.0007,0,0,0,0,0,0,0.0139,0.0132,0.0123,0.0121,0.0124,0.0103,0.01,0.0101,0.007,0.0066,0.0085,0.0084,0.0042,0.0038,0.0034,0.0051,0.0015,0.0014,0.0013,-0.0008,-0.0007,-0.0007,0,0,0,0,0,0,0.014,0.0139,0.0124,0.0126,0.0123,0.0104,0.0104,0.01,0.0096,0.0068,0.0063,0.0086,0.0042,0.0036,0.0027,0.0048,0.0013,0.0011,-0.0008,-0.0008,-0.0007,0.0069,0,0,0,0,0,0,0.014,0.0139,0.0143,0.0127,0.0123,0.0124,0.0105,0.01,0.0096,0.0094,0.0066,0.0061,0.0041,0.003,0.0025,0.0045,0.001,-0.0009,-0.0008,-0.0007,0.0066,0.0072,0.0078,0,0,0,0,0,0.0141,0.0148,0.0143,0.0142,0.0129,0.0125,0.0122,0.0106,0.0096,0.01,0.0081,0.0062,0.0032,0.0029,0.0023,0.0043,-0.0009,-0.0008,-0.0007,0.0064,0.0071,0.0078,0,0,0,0,0,0,0.0152,0.0145,0.014,0.0144,0.0139,0.0121,0.0121,0.0111,0.0099,0.0094,0.0068,0.0062,0.0059,0.0038,0.0036,0.0038,0.0008,0.0008,0.0064,0.0071,0.0077,0.0101,0.0009,0,0,0,0,0,0.0157,0.0162,0.0152,0.0156,0.0155,0.0139,0.0136,0.0126,0.0113,0.0107,0.0089,0.007,0.0059,0.0055,0.0036,0.0041,0.0017,0.0048,0.0054,0.0059,0.0075,0.0052,0.0058,-0.0003,-0.0003,-0.0003,0,0,0.0161,0.016,0.0161,0.0159,0.0152,0.016,0.0136,0.0134,0.0145,0.0103,0.011,0.0087,0.0062,0.0066,0.0063,0.0053,0.0063,0.0061,0.0066,0.0078,0.0054,0.006,0.0065,-0.0003,-0.0003,-0.0003,0,0,0.0175,0.0173,0.0181,0.0183,0.0179,0.0174,0.0177,0.0164,0.0164,0.0166,0.014,0.0132,0.0112,0.0106,0.0099,0.0125,0.009,0.0116,0.0174,0.0152,0.0158,0.0162,0.0136,0.0137,0.0126,0.0126,0.0126,0,0.018,0.0193,0.0183,0.0195,0.0204,0.0185,0.0202,0.0201,0.0188,0.02,0.0176,0.0162,0.0135,0.0155,0.0164,0.0141,0.012,0.0152,0.0162,0.0165,0.0168,0.0141,0.0141,0.013,0.0129,0.0129,0.0128,0,0.0201,0.0214,0.0221,0.0235,0.0242,0.0253,0.0254,0.0263,0.0259,0.026,0.0272,0.0237,0.0233,0.0223,0.0203,0.0221,0.0195,0.0167,0.0148,0.0179,0.0148,0.0147,0.0135,0.0134,0.0133,0.0132,0,0,0.0209,0.0232,0.0237,0.0255,0.0267,0.0277,0.0305,0.033,0.0358,0.0344,0.0376,0.0357,0.0341,0.0331,0.0303,0.0291,0.0287,0.0249,0.0246,0.0232,0.0238,0.0188,0.0182,0.0262,0.0262,0.0262,0.0206,0,0.0232,0.0265,0.0273,0.0314,0.0333,0.0341,0.0377,0.0398,0.0405,0.0429,0.0412,0.0419,0.0382,0.0378,0.0365,0.0299,0.029,0.0305,0.0203,0.02,0.0159,0.0181,0.0264,0.0205,0.0205,0.0205,0.0205,0,0.0253,0.0275,0.0316,0.0367,0.0378,0.0404,0.0459,0.0487,0.0519,0.0525,0.0534,0.0511,0.0501,0.0454,0.0385,0.0396,0.0333,0.0282,0.0278,0.0208,0.0149,0.0166,0.0203,0.0203,0.0203,0.0203,0.0204,0,0.0265,0.031,0.0347,0.0361,0.0411,0.0443,0.0476,0.0519,0.056,0.0583,0.0598,0.0583,0.0562,0.0496,0.0389,0.0388,0.0298,0.0274,0.0177,0.0171,0.02,0.0196,0.0235,0.0235,0.0235,0.0235,0.0235,0,0.0287,0.0319,0.0358,0.0378,0.044,0.0468,0.054,0.0568,0.0621,0.0668,0.0647,0.0654,0.0571,0.0506,0.0414,0.0288,0.0311,0.0196,0.0158,0.0231,0.0231,0.0199,0.0195,0.0233,0.0234,0.0234,0.0234,0,0.0293,0.0316,0.0362,0.0419,0.0444,0.0488,0.0579,0.0632,0.0668,0.0721,0.073,0.0707,0.0612,0.0515,0.039,0.0308,0.0196,0.0146,0.0234,0.02,0.0082,0.0083,0.0044,0.0042,0.004,0.0039,0.0037,0,0.0299,0.0321,0.0384,0.0419,0.0448,0.052,0.058,0.0648,0.07,0.0743,0.0763,0.0703,0.0662,0.0458,0.0346,0.0171,0.0141,0.0088,0.0095,0.0097,0.0065,0.0069,0.0072,0.0035,0.0034,0.0034,0.0033,0,0.0311,0.033,0.0365,0.0433,0.0494,0.0571,0.0651,0.0689,0.0763,0.0794,0.0782,0.0695,0.0585,0.044,0.03,0.0176,0.0126,0.0068,0.0072,0.0078,0.0085,0.0056,0.0061,0.0027,0.0028,0.0028,0.0029,0,0.0317,0.0339,0.0384,0.0446,0.0521,0.0595,0.0641,0.0699,0.0753,0.0797,0.0783,0.0682,0.0638,0.044,0.0311,0.0181,0.015,0.0111,0.0111,0.0117,0.0148,0.0167,0.0112,0,0,0,0,0,0.0322,0.0346,0.04,0.0466,0.0542,0.0589,0.0683,0.0726,0.0782,0.0775,0.0787,0.0684,0.05,0.0426,0.0287,0.0263,0.0118,0.0093,0.0071,-0.0008,-0.0001,0.0018,0,0,0,0,0,0,0.0324,0.0367,0.0391,0.0471,0.052,0.0611,0.0669,0.0711,0.071,0.0742,0.0646,0.0631,0.045,0.0571,0.0276,0.024,0.0202,0.002,0.0016,-0.0012,-0.0005,0.0,0.0022,0,0,0,0,0]}]]